This demonstration page uses our WeatherBlox Daily Observations layout. Learn more.

Left ArrowRight Arrow

39.95238, -75.16362

Hourly Observations for January 1, 2022

Temp ( °F °C ) Dew Point ( °F °C ) Humidity (%) Winds ( mph kmh ) Pressure ( in mb ) Visibility ( mi km ) Precip ( " mm )
12:54 am 00:54 Cloudy with Light Rain 52 11.1 50 10 93 93 ESE 3 6 29.86 1011 4 6 0.00 0.00
1:54 am 01:54 Cloudy with Mist and Fog 52 11.1 50 10 93 93 Calm 29.88 1012 3 5 0.00 0.00
2:54 am 02:54 Cloudy with Mist and Fog 52 11.1 50 10 93 93 ESE 3 6 29.86 1011 3 5 0.00 0.00
3:51 am 03:51 Cloudy with Mist and Fog 52 11 50 10 94 94 Calm 29.85 1011 2 2 0.00 0.00
3:54 am 03:54 Cloudy with Mist and Fog 52 11.1 50 10 93 93 Calm 29.84 1011 2 2 0.00 0.00
4:31 am 04:31 Cloudy with Mist and Fog 52 11.1 50 10 93 93 E 3 6 29.83 1010 1 1 0.00 0.00
4:48 am 04:48 Cloudy with Mist and Fog 52 11 52 11 100 100 E 3 6 29.83 1010 1 2 0.00 0.00
4:54 am 04:54 Cloudy with Mist and Fog 52 11.1 51 10.6 97 97 Calm 29.83 1010 1 2 0.00 0.00
5:11 am 05:11 Cloudy with Fog 52 11.1 50 10 93 93 E 3 6 29.82 1010 1 1 0.00 0.00
5:54 am 05:54 Mostly Cloudy with Fog 52 11.1 50 10 93 93 E 3 6 29.82 1010 1 1 0.00 0.00
6:54 am 06:54 Mostly Cloudy with Light Rain 52 11.1 50 10 93 93 Calm 29.81 1010 1 1 0.00 0.00
7:14 am 07:14 Mostly Cloudy with Light Rain 52 11.1 51 10.6 97 97 Calm 29.81 1010 1 1 0.01 0.25
7:25 am 07:25 Mostly Cloudy with Light Rain 52 11.1 50 10 93 93 Calm 29.82 1010 0 0 0.01 0.25
7:46 am 07:46 Mostly Cloudy with Light Rain 53 11.7 51 10.6 93 93 WNW 5 7 29.84 1011 1 1 0.02 0.51
7:54 am 07:54 Mostly Cloudy with Light Rain 53 11.7 51 10.6 93 93 NNW 3 6 29.84 1010 1 1 0.02 0.51
8:19 am 08:19 Cloudy with Light Rain 54 12.2 52 11.1 93 93 Calm 29.84 1011 1 1 0.01 0.25
8:32 am 08:32 Cloudy with Light Rain 53 11.7 51 10.6 93 93 Calm 29.85 1011 1 1 0.02 0.51
8:37 am 08:37 Cloudy with Light Rain 52 11.1 50 10 93 93 Calm 29.84 1011 0 0 0.02 0.51
8:54 am 08:54 Cloudy with Light Rain 53 11.7 51 10.6 93 93 Calm 29.84 1011 0 0 0.02 0.51
9:08 am 09:08 Mostly Cloudy with Light Rain 53 11.7 51 10.6 93 93 S 3 6 29.86 1011 0 0 0.01 0.25
9:17 am 09:17 Mostly Cloudy with Light Rain 53 11.7 51 10.6 93 93 SSW 5 7 29.86 1011 0 0 0.01 0.25
9:42 am 09:42 Cloudy with Light Rain 53 11.7 52 11.1 96 96 Calm 29.86 1011 0 0 0.01 0.25
9:54 am 09:54 Cloudy with Light Rain 54 12.2 52 11.1 93 93 N 5 7 29.86 1011 1 1 0.02 0.51
10:04 am 10:04 Cloudy with Light Rain 54 12.2 52 11.1 93 93 Calm 29.86 1011 1 2 0.00 0.00
10:43 am 10:43 Cloudy with Light Rain 55 12.8 54 12.2 96 96 Calm 29.84 1011 2 3 0.03 0.76
10:54 am 10:54 Cloudy with Light Rain 55 12.8 53 11.7 93 93 Calm 29.83 1010 2 3 0.04 1.02
11:19 am 11:19 Cloudy with Light Rain 54 12.2 52 11.1 93 93 E 5 7 29.81 1009 1 2 0.00 0.00
11:36 am 11:36 Mostly Cloudy with Rain 54 12.2 53 11.7 97 97 Calm 29.80 1009 0 0 0.00 0.00
11:54 am 11:54 Mostly Cloudy with Light Rain 55 12.8 54 12.2 96 96 Calm 29.79 1009 1 1 0.00 0.00
12:14 pm 12:14 Cloudy with Light Rain 56 13.3 54 12.2 93 93 Calm 29.78 1008 1 2 0.01 0.25
12:26 pm 12:26 Cloudy with Light Rain 56 13.3 54 12.2 93 93 Calm 29.77 1008 2 3 0.01 0.25
12:54 pm 12:54 Cloudy with Light Rain 56 13.3 54 12.2 93 93 Calm 29.76 1008 2 3 0.02 0.51
1:54 pm 13:54 Cloudy with Light Rain 56 13.3 54 12.2 93 93 Calm 29.74 1007 2 3 0.05 1.27
2:41 pm 14:41 Cloudy with Mist and Fog 56 13.3 54 12.2 93 93 Calm 29.72 1006 2 3 0.00 0.00
2:54 pm 14:54 Cloudy with Mist and Fog 56 13.3 54 12.2 93 93 ENE 3 6 29.72 1006 3 4 0.00 0.00
3:11 pm 15:11 Cloudy with Mist and Fog 56 13.3 54 12.2 93 93 Calm 29.72 1006 3 5 0.00 0.00
3:44 pm 15:44 Cloudy with Light Rain 57 13.9 54 12.2 90 90 Calm 29.71 1006 3 5 0.00 0.00
3:47 pm 15:47 Cloudy with Light Rain 57 13.9 54 12.2 90 90 E 3 6 29.71 1006 2 3 0.00 0.00
3:54 pm 15:54 Cloudy with Light Rain 57 13.9 54 12.2 90 90 Calm 29.70 1006 2 2 0.01 0.25
4:21 pm 16:21 Cloudy with Light Rain 55 12.8 53 11.7 93 93 ESE 5 7 29.70 1006 1 1 0.00 0.00
4:24 pm 16:24 Cloudy with Light Rain 54 12.2 52 11.1 93 93 ESE 5 7 29.70 1006 0 0 0.00 0.00
4:27 pm 16:27 Cloudy with Light Rain 54 12.2 52 11.1 93 93 ESE 5 7 29.70 1006 0 0 0.00 0.00
4:39 pm 16:39 Cloudy with Drizzle 55 12.8 54 12.2 96 96 Calm 29.70 1006 1 1 0.00 0.00
4:54 pm 16:54 Cloudy with Mist and Fog 56 13.3 54 12.2 93 93 SE 3 6 29.70 1006 1 2 0.00 0.00
5:03 pm 17:03 Cloudy with Light Rain 56 13.3 54 12.2 93 93 SE 3 6 29.70 1006 2 3 0.00 0.00
5:20 pm 17:20 Cloudy with Light Rain 56 13.3 54 12.2 93 93 E 5 7 29.68 1005 4 6 0.00 0.00
5:54 pm 17:54 Cloudy with Light Rain 57 13.9 55 12.8 93 93 E 3 6 29.68 1005 4 6 0.00 0.00
6:26 pm 18:26 Cloudy with Light Rain 57 13.9 55 12.8 93 93 E 5 7 29.67 1005 2 2 0.00 0.00
6:35 pm 18:35 Cloudy with Light Rain 57 13.9 55 12.8 93 93 ENE 5 7 29.67 1005 1 2 0.01 0.25
6:54 pm 18:54 Cloudy with Rain 57 13.9 56 13.3 96 96 Calm 29.68 1005 2 2 0.09 2.29
7:04 pm 19:04 Cloudy with Light Rain 57 13.9 56 13.3 96 96 ESE 3 6 29.67 1005 2 3 0.03 0.76
7:12 pm 19:12 Cloudy with Light Rain 57 13.9 55 12.8 93 93 ESE 6 9 29.66 1004 1 2 0.03 0.76
7:21 pm 19:21 Cloudy with Light Rain 56 13.3 54 12.2 93 93 E 7 11 29.65 1004 1 1 0.04 1.02
7:35 pm 19:35 Cloudy with Mist and Fog 57 13.9 55 12.8 93 93 E 6 9 29.65 1004 2 2 0.04 1.02
7:44 pm 19:44 Cloudy with Mist and Fog 57 13.9 55 12.8 93 93 E 3 6 29.65 1004 4 6 0.04 1.02
7:54 pm 19:54 Cloudy with Mist and Fog 57 13.9 55 12.8 93 93 E 5 7 29.63 1004 5 8 0.04 1.02
8:16 pm 20:16 Cloudy with Light Rain 57 13.9 55 12.8 93 93 E 6 9 29.61 1003 5 8 0.00 0.00
8:54 pm 20:54 Cloudy with Light Rain 56 13.3 54 12.2 93 93 E 7 11 29.56 1001 5 8 0.00 0.00
9:06 pm 21:06 Cloudy with Mist and Fog 57 13.9 55 12.8 93 93 ESE 6 9 29.56 1001 6 10 0.00 0.00
9:15 pm 21:15 Cloudy with Light Rain 57 13.9 55 12.8 93 93 ESE 5 7 29.56 1001 3 5 0.00 0.00
9:45 pm 21:45 Cloudy with Rain 58 14.4 56 13.3 93 93 WNW 3 6 29.59 1002 2 3 0.02 0.51
9:54 pm 21:54 Cloudy with Heavy Rain 57 13.9 55 12.8 93 93 NNW 18 30 29.59 1002 2 3 0.08 2.03
10:06 pm 22:06 Cloudy with Heavy Rain 58 14.4 55 12.8 90 90 NNW 10 17 29.60 1002 5 8 0.15 3.81
10:28 pm 22:28 Cloudy with Light Rain 57 13.9 55 12.8 93 93 E 6 9 29.57 1001 9 14 0.18 4.57
10:36 pm 22:36 Cloudy 57 13.9 55 12.8 93 93 ESE 5 7 29.57 1001 10 16 0.18 4.57
10:54 pm 22:54 Cloudy 55 12.8 53 11.7 93 93 Calm 29.57 1001 10 16 0.18 4.57
11:50 pm 23:50 Cloudy 55 13 54 12 94 94 NNW 6 9 29.57 1001 10 16 0.00 0.00
11:54 pm 23:54 Cloudy 55 12.8 53 11.7 93 93 NNW 5 7 29.56 1001 10 16 0.00 0.00

Powered by AerisWeather